Weather History for De Queen, AR

Change the Weather History Date:

Saturday, March 16, 2013

  Actual Average Record
Temperature  
Mean Temperature 62 °F 53 °F  
Max Temperature 80 °F 66 °F 84 °F (1945)
Min Temperature 44 °F 40 °F 24 °F (1988)
Degree Days  
Heating Degree Days 3 12  
Month to date heating degree days 244 222  
Since 1 July heating degree days 2559 2713  
Cooling Degree Days 0 0  
Month to date cooling degree days 0 0  
Year to date cooling degree days 4 2  
Growing Degree Days 12 (Base 50)    
Moisture  
Dew Point 49 °F    
Average Humidity 69    
Maximum Humidity 100    
Minimum Humidity 37    
Precipitation  
Precipitation 0.00 in 0.16 in 2.53 in (1993)
Month to date precipitation 0.36 1.93  
Year to date precipitation 4.32 8.93  
Snow  
Snow 0.00 in - - ()
Month to date snowfall 0.0  
Since 1 July snowfall 4.5  
Snow Depth 0.00 in    
Sea Level Pressure  
Sea Level Pressure 29.83 in    
Wind  
Wind Speed 5 mph (South)    
Max Wind Speed 16 mph    
Max Gust Speed 25 mph    
Visibility 9 miles    
Events      
T = Trace of Precipitation, MM = Missing Value Source: NWS Daily Summary

Daily Weather History Graph

Daily Weather History Graph

Search for Another Location

Airport:

Trip Planner

Search our weather history database for the weather conditions in past years. The results will help you decide how hot, cold, wet, or windy it might be!

Date:

Astronomy

Mar. 16, 2013 Rise Set
Actual Time 7:26 AM CDT 7:26 PM CDT
Civil Twilight 7:01 AM CDT 7:51 PM CDT
Nautical Twilight 6:32 AM CDT 8:20 PM CDT
Astronomical Twilight 6:03 AM CDT 8:49 PM CDT
Moon 10:10 AM CDT (3/16) No Moon Set
Length of Visible Light 12h 49m
Length of Day
12h 00m
Waxing Crescent, 23% of the Moon is Illuminated
Mar 16
Waxing Crescent
Mar 19
First Quarter
Mar 27
Full
Apr 2
Last Quarter
Apr 10
New

Hourly Weather History & Observations

Time (CDT) Temp. Dew Point Humidity Pressure Visibility Wind Dir Wind Speed Gust Speed Precip Events Conditions
12:53 AM 52.0 °F 46.9 °F 83% 29.88 in 10.0 mi Calm Calm - N/A   Clear
1:53 AM 50.0 °F 46.0 °F 86% 29.88 in 10.0 mi East 3.5 mph - N/A   Clear
2:53 AM 48.9 °F 46.0 °F 90% 29.88 in 10.0 mi Calm Calm - N/A   Clear
3:53 AM 46.9 °F 45.0 °F 93% 29.87 in 10.0 mi Calm Calm - N/A   Clear
4:53 AM 46.9 °F 44.1 °F 90% 29.87 in 9.0 mi Calm Calm - N/A   Clear
5:53 AM 45.0 °F 44.1 °F 97% 29.88 in 7.0 mi Calm Calm - N/A   Clear
6:53 AM 45.0 °F 43.0 °F 93% 29.89 in 7.0 mi Calm Calm - N/A   Clear
7:53 AM 45.0 °F 43.0 °F 93% 29.90 in 5.0 mi Calm Calm - N/A   Clear
8:53 AM 53.1 °F 48.9 °F 86% 29.90 in 6.0 mi NE 3.5 mph - N/A   Clear
9:53 AM 62.1 °F 54.0 °F 75% 29.90 in 10.0 mi Variable 4.6 mph - N/A   Clear
10:53 AM 66.0 °F 53.1 °F 63% 29.89 in 10.0 mi SSW 8.1 mph 19.6 mph N/A   Clear
11:53 AM 70.0 °F 52.0 °F 53% 29.88 in 10.0 mi WSW 11.5 mph - N/A   Clear
12:53 PM 73.0 °F 51.1 °F 46% 29.86 in 10.0 mi SW 9.2 mph - N/A   Clear
1:53 PM 75.0 °F 51.1 °F 43% 29.83 in 10.0 mi South 8.1 mph 18.4 mph N/A   Clear
2:53 PM 77.0 °F 51.1 °F 40% 29.79 in 10.0 mi SSW 12.7 mph 18.4 mph N/A   Clear
3:53 PM 79.0 °F 51.1 °F 38% 29.75 in 10.0 mi SSW 10.4 mph 18.4 mph N/A   Clear
4:53 PM 79.0 °F 50.0 °F 36% 29.73 in 10.0 mi South 11.5 mph 19.6 mph N/A   Clear
5:53 PM 79.0 °F 51.1 °F 38% 29.72 in 10.0 mi South 8.1 mph - N/A   Clear
6:53 PM 77.0 °F 51.1 °F 40% 29.73 in 10.0 mi South 8.1 mph - N/A   Clear
7:53 PM 75.0 °F 50.0 °F 41% 29.74 in 10.0 mi South 4.6 mph - N/A   Clear
8:53 PM 69.1 °F 51.1 °F 53% 29.75 in 10.0 mi SE 3.5 mph - N/A   Clear
9:53 PM 66.9 °F 51.1 °F 57% 29.76 in 10.0 mi Calm Calm - N/A   Clear
10:53 PM 68.0 °F 51.1 °F 55% 29.76 in 10.0 mi SSE 4.6 mph - N/A   Clear
11:53 PM 68.0 °F 51.1 °F 55% 29.76 in 10.0 mi South 6.9 mph - N/A   Clear